Date String (YYYY-MM-DD hh:mm:ss) UTC,Instrument flags,Ambient pressure (hPa),Sample flow (lpm),Bypass flow (lpm),Sample temperature (°C),Ambient temperature (°C),ASC tube jacket temperature (°C),LED temperature (°C),Box temperature (°C),Sample RH (%),Span deviation,Mass concentration (μg/m³),Mass concentration (μg/m³),Mass concentration (μg/m³)
DateTimeUTC,F1_M11,P_M11,Q1_M11,Q2_M11,T1_M11,T2_M11,T3_M11,T4_M11,T5_M11,U1_M11,ZSPAN_M11,X0_M11,X2_M11,X1_M11
2022-07-16 12:00:00,,0830.3,5.00,0.00,30.6,28.9,00.0,39.1,32.1,34.2,0000.0,0009.07,0005.71,0005.11
2022-07-16 12:01:00,,0830.3,5.00,0.00,30.7,28.9,00.0,39.2,32.1,34.2,0000.0,0009.11,0005.72,0005.11
2022-07-16 12:02:00,,0830.2,5.00,0.00,30.7,29.0,00.0,39.2,32.1,34.2,0000.0,0009.51,0005.73,0005.09
2022-07-16 12:03:00,,0830.3,5.00,0.00,30.7,29.0,00.0,39.2,32.1,34.2,0000.0,0009.82,0005.72,0005.07
2022-07-16 12:04:00,,0830.2,5.00,0.00,30.7,28.8,00.0,39.2,32.2,34.1,0000.0,0009.79,0005.70,0005.06
2022-07-16 12:05:00,,0830.2,5.01,0.00,30.7,28.0,00.0,39.1,32.1,34.1,0000.0,0009.89,0005.69,0005.06
2022-07-16 12:06:00,,0830.2,5.00,0.00,30.6,27.3,00.0,39.1,31.9,34.2,0000.0,0010.03,0005.70,0005.06
2022-07-16 12:07:00,,0830.2,4.99,0.00,30.5,27.1,00.0,39.0,31.7,34.3,0000.0,0009.92,0005.69,0005.06
2022-07-16 12:08:00,,0830.2,5.00,0.00,30.3,27.1,00.0,39.0,31.6,34.6,0000.0,0009.95,0005.70,0005.07
2022-07-16 12:09:00,,0830.1,5.01,0.00,30.3,27.3,00.0,39.0,31.6,34.6,0000.0,0010.19,0005.71,0005.06
2022-07-16 12:10:00,,0830.2,4.99,0.00,30.2,27.4,00.0,39.0,31.6,34.5,0000.0,0010.62,0005.71,0005.03
2022-07-16 12:11:00,,0830.2,5.00,0.00,30.2,27.6,00.0,39.0,31.6,34.3,0000.0,0010.66,0005.70,0004.99
2022-07-16 12:12:00,,0830.3,5.01,0.00,30.1,27.8,00.0,38.9,31.6,34.5,0000.0,0010.65,0005.65,0004.96
2022-07-16 12:13:00,,0830.2,5.00,0.00,30.2,28.0,00.0,38.9,31.7,35.1,0000.0,0010.65,0005.64,0004.96
2022-07-16 12:14:00,,0830.2,4.99,0.00,30.3,28.1,00.0,38.9,31.8,34.7,0000.0,0010.09,0005.63,0004.96
2022-07-16 12:15:00,,0830.2,5.00,0.00,30.5,28.2,00.0,38.9,31.9,34.1,0000.0,0010.25,0005.64,0004.94
2022-07-16 12:16:00,,0830.3,5.01,0.00,30.6,28.3,00.0,38.9,31.9,33.7,0000.0,0010.72,0005.62,0004.91
2022-07-16 12:17:00,,0830.4,5.00,0.00,30.6,28.4,00.0,38.9,31.9,33.5,0000.0,0010.58,0005.61,0004.88
2022-07-16 12:18:00,,0830.3,4.99,0.00,30.6,28.5,00.0,39.0,31.9,33.6,0000.0,0010.53,0005.59,0004.86
2022-07-16 12:19:00,,0830.3,4.99,0.00,30.7,28.6,00.0,39.0,32.0,32.7,0000.0,0010.42,0005.54,0004.82
2022-07-16 12:20:00,,0830.4,5.00,0.00,30.7,28.7,00.0,39.0,32.0,32.2,0000.0,0010.30,0005.46,0004.79
2022-07-16 12:21:00,,0830.4,5.00,0.00,30.7,28.7,00.0,39.1,32.0,32.3,0000.0,0009.73,0005.43,0004.77
2022-07-16 12:22:00,,0830.4,5.00,0.00,30.7,28.8,00.0,39.1,32.0,33.1,0000.0,0009.58,0005.40,0004.79
2022-07-16 12:23:00,,0830.4,5.00,0.00,30.7,28.8,00.0,39.1,32.0,33.6,0000.0,0009.56,0005.43,0004.82
2022-07-16 12:24:00,,0830.4,4.99,0.00,30.7,28.9,00.0,39.1,32.1,34.5,0000.0,0009.31,0005.41,0004.82
2022-07-16 12:25:00,,0830.3,5.01,0.00,30.7,28.9,00.0,39.2,32.1,35.4,0000.0,0009.45,0005.44,0004.83
2022-07-16 12:26:00,,0830.2,4.99,0.00,31.0,29.0,00.0,39.2,32.3,35.0,0000.0,0009.96,0005.47,0004.86
2022-07-16 12:27:00,,0830.3,5.00,0.00,31.2,29.0,00.0,39.2,32.4,34.5,0000.0,0009.74,0005.54,0004.91
2022-07-16 12:28:00,,0830.3,5.01,0.00,31.4,29.0,00.0,39.3,32.4,34.1,0000.0,0009.62,0005.57,0004.95
2022-07-16 12:29:00,,0830.2,4.99,0.00,31.4,28.5,00.0,39.2,32.4,33.9,0000.0,0009.66,0005.61,0004.99
2022-07-16 12:30:00,,0830.2,5.01,0.00,31.4,27.9,00.0,39.2,32.3,33.6,0000.0,0009.76,0005.66,0005.03
2022-07-16 12:31:00,,0830.2,5.00,0.00,31.4,27.6,00.0,39.3,32.1,33.3,0000.0,0009.88,0005.77,0005.09
2022-07-16 12:32:00,,0830.2,4.99,0.00,31.2,27.6,00.0,39.3,32.0,34.0,0000.0,0010.62,0005.86,0005.17
2022-07-16 12:33:00,,0830.2,5.01,0.00,31.2,27.7,00.0,39.3,31.9,33.7,0000.0,0010.81,0005.95,0005.22
2022-07-16 12:34:00,,0830.2,4.99,0.00,31.1,27.9,00.0,39.4,31.9,33.7,0000.0,0010.97,0005.99,0005.24
2022-07-16 12:35:00,,0830.2,5.00,0.00,31.0,28.0,00.0,39.4,31.9,33.8,0000.0,0011.10,0006.01,0005.27
2022-07-16 12:36:00,,0830.2,5.01,0.00,31.0,28.1,00.0,39.4,32.0,33.8,0000.0,0011.38,0006.00,0005.28
2022-07-16 12:37:00,,0830.1,4.99,0.00,31.0,28.3,00.0,39.4,32.0,33.7,0000.0,0011.12,0006.04,0005.30
2022-07-16 12:38:00,,0830.1,5.00,0.00,30.9,28.4,00.0,39.4,32.0,33.2,0000.0,0011.02,0006.02,0005.30
2022-07-16 12:39:00,,0830.1,4.99,0.00,30.9,28.5,00.0,39.4,32.0,32.6,0000.0,0011.19,0006.00,0005.28
2022-07-16 12:40:00,,0830.1,5.00,0.00,30.9,28.6,00.0,39.4,32.1,32.0,0000.0,0011.25,0005.97,0005.24
2022-07-16 12:41:00,,0830.1,5.01,0.00,30.9,28.7,00.0,39.4,32.1,30.9,0000.0,0011.13,0005.89,0005.18
2022-07-16 12:42:00,,0830.1,4.99,0.00,30.9,28.8,00.0,39.4,32.1,30.8,0000.0,0010.89,0005.77,0005.10
2022-07-16 12:43:00,,0830.1,4.99,0.00,30.9,28.8,00.0,39.4,32.1,30.0,0000.0,0010.08,0005.63,0005.00
2022-07-16 12:44:00,,0830.1,5.00,0.00,30.8,28.9,00.0,39.4,32.2,32.2,0000.0,0010.37,0005.56,0004.93
2022-07-16 12:45:00,,0830.1,5.00,0.00,30.8,28.9,00.0,39.4,32.2,32.3,0000.0,0010.69,0005.55,0004.90
2022-07-16 12:46:00,,0830.1,5.00,0.00,30.8,29.0,00.0,39.4,32.2,33.1,0000.0,0011.01,0005.53,0004.88
2022-07-16 12:47:00,,0830.1,5.01,0.00,30.8,29.0,00.0,39.4,32.2,32.6,0000.0,0010.71,0005.48,0004.84
2022-07-16 12:48:00,,0830.1,5.00,0.00,30.8,28.9,00.0,39.4,32.3,32.5,0000.0,0010.73,0005.41,0004.81
2022-07-16 12:49:00,,0830.1,5.00,0.00,30.8,28.3,00.0,39.3,32.2,33.2,0000.0,0010.55,0005.36,0004.80
2022-07-16 12:50:00,,0830.1,5.00,0.00,30.8,27.8,00.0,39.3,32.1,34.1,0000.0,0010.45,0005.40,0004.83
2022-07-16 12:51:00,,0830.1,4.99,0.00,30.7,27.7,00.0,39.3,31.9,34.7,0000.0,0010.58,0005.47,0004.89
2022-07-16 12:52:00,,0830.1,4.99,0.00,30.6,27.7,00.0,39.3,31.9,35.0,0000.0,0010.83,0005.57,0004.97
2022-07-16 12:53:00,,0830.1,5.00,0.00,30.6,27.8,00.0,39.2,31.9,35.3,0000.0,0011.00,0005.69,0005.04
2022-07-16 12:54:00,,0830.1,5.02,0.00,30.8,27.9,00.0,39.2,32.0,35.1,0000.0,0011.21,0005.82,0005.14
2022-07-16 12:55:00,,0830.1,4.99,0.00,31.0,28.1,00.0,39.2,32.1,34.5,0000.0,0010.91,0005.87,0005.20
2022-07-16 12:56:00,,0830.1,4.99,0.00,31.2,28.2,00.0,39.2,32.2,33.9,0000.0,0010.68,0005.90,0005.23
2022-07-16 12:57:00,,0830.3,4.99,0.00,31.3,28.3,00.0,39.2,32.1,33.4,0000.0,0010.50,0005.93,0005.26
2022-07-16 12:58:00,,0830.2,5.02,0.00,31.3,28.5,00.0,39.3,32.1,33.4,0000.0,0010.37,0005.97,0005.29
2022-07-16 12:59:00,,0830.2,5.00,0.00,31.3,28.6,00.0,39.4,32.1,33.9,0000.0,0010.16,0006.01,0005.31
